FW4213 Weather Reports


Display with metric or nautical units.
time (UTC)temp
F
wind
direction
speed
MPH
gust
MPH
rain 1hr
in
rain 24hr
in
rain mn
in
humidity
%
barometer
mb
20260503231535 89 113 2.0 6.0 0.00 0.00 0.00 27 1010.9
20260503230030 89 126 2.0 9.0 0.00 0.00 0.00 26 1011.2
20260503224529 89 156 2.0 6.0 0.00 0.00 0.00 26 1011.4
20260503223035 89 121 1.0 7.0 0.00 0.00 0.00 26 1011.8
20260503221534 88 320 0.0 3.0 0.00 0.00 0.00 26 1012.0
20260503220030 88 62 2.0 7.0 0.00 0.00 0.00 27 1012.2
20260503214531 88 177 1.0 9.0 0.00 0.00 0.00 28 1012.4
20260503213035 86 154 2.0 8.0 0.00 0.00 0.00 29 1012.8
20260503210033 86 120 2.0 8.0 0.00 0.00 0.00 30 1013.0
20260503204609 85 102 2.0 7.0 0.00 0.00 0.00 31 1013.2
20260503203037 84 353 3.0 10.0 0.00 0.00 0.00 33 1013.4
20260503201536 83 198 1.0 4.0 0.00 0.00 0.00 39 1013.8
20260503193143 80 305 1.0 3.0 0.00 0.00 0.00 44 1014.2
20260503191643 78 292 1.0 4.0 0.00 0.00 0.00 45 1014.4
20260503190029 78 303 1.0 4.0 0.00 0.00 0.00 46 1014.6
20260503183034 75 318 2.0 5.0 0.00 0.00 0.00 49 1015.0
20260503181610 73 329 1.0 4.0 0.00 0.00 0.00 53 1015.1
20260503180032 72 329 2.0 5.0 0.00 0.00 0.00 55 1015.3
20260503173031 70 322 1.0 4.0 0.00 0.00 0.00 58 1015.6
20260503171532 69 330 1.0 3.0 0.00 0.00 0.00 58 1015.7
20260503071536 56 135 2.0 5.0 0.00 0.00 0.00 82 1015.6
20260503060143 58 145 4.0 7.0 0.00 0.00 0.00 84 1015.5
20260503054532 58 124 2.0 5.0 0.00 0.00 0.00 86 1015.5
20260503053032 57 140 2.0 6.0 0.00 0.00 0.00 89 1015.7
20260503051536 58 138 1.0 5.0 0.00 0.00 0.00 89 1015.5
20260503050036 57 119 1.0 5.0 0.00 0.00 0.00 88 1015.4
20260503043034 58 102 2.0 4.0 0.00 0.00 0.00 86 1015.2
20260503041642 58 91 2.0 4.0 0.00 0.00 0.00 85 1015.0
20260503034651 60 79 2.0 2.0 0.00 0.00 0.00 82 1014.4
20260503033108 61 119 1.0 3.0 0.00 0.00 0.00 80 1014.1
20260503031535 63 67 0.0 2.0 0.00 0.00 0.00 76 1013.7
20260503024609 65 60 2.0 4.0 0.00 0.00 0.00 71 1013.2
20260503021535 69 3 1.0 3.0 0.00 0.00 0.00 65 1012.7
20260503020144 70 346 0.0 3.0 0.00 0.00 0.00 64 1012.6
20260503013036 73 26 0.0 2.0 0.00 0.00 0.00 63 1012.6
20260503011534 76 45 0.0 0.0 0.00 0.00 0.00 60 1012.6
20260503010032 76 45 0.0 3.0 0.00 0.00 0.00 55 1012.6
20260503004643 76 23 0.0 3.0 0.00 0.00 0.00 53 1012.6
20260503003143 76 10 1.0 4.0 0.00 0.00 0.00 53 1012.6
20260503001536 76 359 0.0 3.0 0.00 0.00 0.00 53 1012.6
20260503000033 75 353 2.0 5.0 0.00 0.00 0.00 54 1012.8
20260502234642 76 332 1.0 4.0 0.00 0.00 0.00 56 1013.0
20260502233111 76 331 1.0 3.0 0.00 0.00 0.00 54 1013.2